Location: Newark
(45.7425°N, 0.7617°W)
Time: 00:50:37
(UTC+00:00)

N. Korean satellite - Pass Details

Date: 31 January 2020
Orbit: 456 x 505 km, 97.2° (Epoch: 20 February)

Event Time Altitude Azimuth Distance (km) Brightness Sun altitude
Rises 06:16:15 0° 7° (N) 2,559 10.2 -12.5°
Reaches altitude 10° 06:18:21 10° 2° (N) 1,682 9.2 -12.1°
Maximum altitude 06:21:52 50° 287° (WNW) 637 6.7 -11.5°
Drops below altitude 10° 06:25:24 10° 211° (SSW) 1,694 9.1 -10.9°
Sets 06:27:31 0° 206° (SSW) 2,578 10.1 -10.6°
